Terug naar catalogus

STARLINK-30273

ActiefCommunicatieVLEO
NORAD 57681·PAYLOAD·🇺🇸 United States

Gelanceerd Aug 22, 2023 vanaf Vandenberg Space Force Base

Loading…

Volgende Passages (komende 24 uur)

TLE

VersSource: CelesTrak SupGP

Epoch: Sep 14, 2026, 21:21 UTC

1 57681C 23124U   26257.89006944  .00063855  00000+0  16965-2 0  2573
2 57681  53.1553  45.5058 0002288 279.5661 162.8292 15.37663243    15

Volg STARLINK-30273 in realtime met AllMySat

Download on the App Store